Powrót do katalogu

BS-3N

AktywnyŁącznośćGEO
NORAD 23176·PAYLOAD·🇯🇵 Japan

Wystrzelony Jul 8, 1994 z Guiana Space Centre

Loading…

TLE

ŚwieżeSource: Space-Track

Epoka: Sep 14, 2026, 05:45 UTC

1 23176U 94040B   26257.23989317 -.00000191  00000-0  00000-0 0  9992
2 23176  13.4774  19.2782 0002119  38.5993 317.8414  0.99151778103184

Śledź BS-3N w czasie rzeczywistym z AllMySat

Download on the App Store